Change the Weather History Date:

Friday, September 21, 2012

  Actual Average Record
Temperature  
Mean Temperature 44 °F -  
Max Temperature 50 °F 46 °F 60 °F (2001)
Min Temperature 37 °F 33 °F 23 °F (2003)
Degree Days  
Heating Degree Days 22    
Moisture  
Dew Point 37 °F    
Average Humidity 77    
Maximum Humidity 93    
Minimum Humidity 51    
Precipitation  
Precipitation 0.00 in - - ()
Sea Level Pressure  
Sea Level Pressure 29.71 in    
Wind  
Wind Speed 3 mph (North)    
Max Wind Speed 12 mph    
Max Gust Speed 22 mph    
Visibility 10 miles    
Events      
Averages and records for this station are not official NWS values.
T = Trace of Precipitation, MM = Missing Value Source: NWS Daily Summary

Daily Weather History Graph

Daily Weather History Graph

Search for Another Location

Airport or City:

Trip Planner

Search our weather history database for the weather conditions in past years. The results will help you decide how hot, cold, wet, or windy it might be!

Date:

Astronomy

Sep. 21, 2012 Rise Set
Actual Time 8:21 AM AKDT 8:39 PM AKDT
Civil Twilight 7:37 AM AKDT 9:22 PM AKDT
Nautical Twilight 6:44 AM AKDT 10:15 PM AKDT
Astronomical Twilight 5:45 AM AKDT 11:13 PM AKDT
Moon 4:50 PM AKDT (9/21) 10:57 PM AKDT (9/21)
Length of Visible Light 13h 45m
Length of Day
12h 17m
Waxing Crescent, 39% of the Moon is Illuminated
Sep 21
Waxing Crescent
Sep 22
First Quarter
Sep 29
Full
Oct 7
Last Quarter
Oct 15
New

Hourly Weather History & Observations

Time (AKDT) Temp. Windchill Dew Point Humidity Pressure Visibility Wind Dir Wind Speed Gust Speed Precip Events Conditions
12:16 AM 42.8 °F 40.1 °F 37.4 °F 81% 29.67 in 10.0 mi West 4.6 mph - N/A   Overcast
12:36 AM 42.8 °F 40.1 °F 37.4 °F 81% 29.67 in 10.0 mi NW 4.6 mph - N/A   Overcast
12:56 AM 42.8 °F 41.1 °F 37.4 °F 81% 29.67 in 10.0 mi NW 3.5 mph - N/A   Overcast
1:16 AM 42.8 °F - 37.4 °F 81% 29.67 in 10.0 mi Calm Calm - N/A   Overcast
1:36 AM 42.8 °F - 37.4 °F 81% 29.68 in 10.0 mi Calm Calm - N/A   Overcast
1:56 AM 42.8 °F - 37.4 °F 81% 29.68 in 10.0 mi Calm Calm - N/A   Overcast
2:16 AM 42.8 °F - 37.4 °F 81% 29.69 in 10.0 mi Calm Calm - N/A   Overcast
2:36 AM 42.8 °F 41.1 °F 37.4 °F 81% 29.69 in 10.0 mi WNW 3.5 mph - N/A   Overcast
2:56 AM 42.8 °F - 37.4 °F 81% 29.70 in 10.0 mi Calm Calm - N/A   Overcast
3:16 AM 42.8 °F - 37.4 °F 81% 29.71 in 10.0 mi Calm Calm - N/A   Overcast
3:36 AM 42.8 °F 40.1 °F 37.4 °F 81% 29.71 in 10.0 mi West 4.6 mph - N/A   Overcast
3:56 AM 42.8 °F 41.1 °F 37.4 °F 81% 29.73 in 10.0 mi SW 3.5 mph - N/A   Overcast
4:16 AM 41.0 °F 39.0 °F 37.4 °F 87% 29.73 in 10.0 mi West 3.5 mph - N/A   Overcast
4:36 AM 41.0 °F - 37.4 °F 87% 29.73 in 10.0 mi Calm Calm - N/A   Overcast
4:56 AM 41.0 °F 39.0 °F 37.4 °F 87% 29.73 in 10.0 mi WNW 3.5 mph - N/A   Overcast
5:16 AM 39.2 °F 37.0 °F 35.6 °F 87% 29.74 in 10.0 mi West 3.5 mph - N/A   Mostly Cloudy
5:36 AM 39.2 °F - 35.6 °F 87% 29.74 in 10.0 mi Calm Calm - N/A   Mostly Cloudy
5:56 AM 39.2 °F - 35.6 °F 87% 29.74 in 10.0 mi Calm Calm - N/A   Overcast
6:16 AM 37.4 °F - 35.6 °F 93% 29.74 in 10.0 mi Calm Calm - N/A   Overcast
6:36 AM 39.2 °F 35.9 °F 35.6 °F 87% 29.75 in 10.0 mi NE 4.6 mph - N/A   Overcast
6:56 AM 39.2 °F - 35.6 °F 87% 29.76 in 10.0 mi Calm Calm - N/A   Overcast
7:16 AM 39.2 °F - 35.6 °F 87% 29.77 in 10.0 mi Calm Calm - N/A   Overcast
7:36 AM 39.2 °F - 35.6 °F 87% 29.77 in 10.0 mi Calm Calm - N/A   Overcast
7:56 AM 39.2 °F - 35.6 °F 87% 29.77 in 10.0 mi Calm Calm - N/A   Overcast
8:16 AM 37.4 °F - 35.6 °F 93% 29.78 in 10.0 mi Calm Calm - N/A   Overcast
8:36 AM 37.4 °F - 35.6 °F 93% 29.78 in 10.0 mi Calm Calm - N/A   Overcast
8:56 AM 37.4 °F - 35.6 °F 93% 29.78 in 10.0 mi Calm Calm - N/A   Overcast
9:16 AM 37.4 °F - 35.6 °F 93% 29.79 in 10.0 mi Calm Calm - N/A   Overcast
9:36 AM 37.4 °F - 35.6 °F 93% 29.79 in 10.0 mi Calm Calm - N/A   Partly Cloudy
9:56 AM 37.4 °F - 35.6 °F 93% 29.80 in 10.0 mi Calm Calm - N/A   Mostly Cloudy
10:16 AM 39.2 °F - 37.4 °F 93% 29.79 in 10.0 mi Calm Calm - N/A   Overcast
10:36 AM 41.0 °F - 39.2 °F 93% 29.79 in 10.0 mi Calm Calm - N/A   Overcast
10:56 AM 42.8 °F - 39.2 °F 87% 29.80 in 10.0 mi Calm Calm - N/A   Mostly Cloudy
11:16 AM 42.8 °F - 39.2 °F 87% 29.80 in 10.0 mi Calm Calm - N/A   Partly Cloudy
11:36 AM 44.6 °F 42.2 °F 41.0 °F 87% 29.82 in 10.0 mi ESE 4.6 mph - N/A   Partly Cloudy
11:56 AM 42.8 °F - 39.2 °F 87% 29.82 in 10.0 mi Calm Calm - N/A   Partly Cloudy
12:16 PM 42.8 °F - 39.2 °F 87% 29.80 in 10.0 mi Calm Calm - N/A   Clear
12:36 PM 44.6 °F - 39.2 °F 81% 29.80 in 10.0 mi Calm Calm - N/A   Partly Cloudy
12:56 PM 46.4 °F 44.3 °F 39.2 °F 76% 29.79 in 10.0 mi ESE 4.6 mph - N/A   Clear
1:16 PM 46.4 °F - 39.2 °F 76% 29.79 in 10.0 mi Calm Calm - N/A   Mostly Cloudy
1:36 PM 46.4 °F - 39.2 °F 76% 29.79 in 10.0 mi Calm Calm - N/A   Overcast
1:56 PM 46.4 °F - 37.4 °F 71% 29.78 in 10.0 mi Calm Calm - N/A   Overcast
2:16 PM 48.2 °F - 37.4 °F 66% 29.78 in 10.0 mi North 3.5 mph - N/A   Overcast
2:36 PM 48.2 °F - 37.4 °F 66% 29.78 in 10.0 mi North 5.8 mph - N/A   Overcast
2:56 PM 48.2 °F - 37.4 °F 66% 29.77 in 10.0 mi NNE 4.6 mph - N/A   Overcast
3:16 PM 48.2 °F - 35.6 °F 62% 29.76 in 10.0 mi NE 3.5 mph - N/A   Overcast
3:36 PM 48.2 °F - 37.4 °F 66% 29.75 in 10.0 mi NNE 5.8 mph - N/A   Overcast
3:56 PM 48.2 °F - 35.6 °F 62% 29.74 in 10.0 mi ENE 5.8 mph - N/A   Mostly Cloudy
4:16 PM 48.2 °F - 37.4 °F 66% 29.74 in 10.0 mi East 5.8 mph - N/A   Partly Cloudy
4:36 PM 50.0 °F - 35.6 °F 58% 29.74 in 10.0 mi East 3.5 mph - N/A   Partly Cloudy
4:56 PM 48.2 °F - 35.6 °F 62% 29.73 in 10.0 mi NNE 5.8 mph - N/A   Mostly Cloudy
5:16 PM 48.2 °F - 35.6 °F 62% 29.72 in 10.0 mi North 8.1 mph - N/A   Partly Cloudy
5:36 PM 48.2 °F - 35.6 °F 62% 29.72 in 10.0 mi NNE 4.6 mph - N/A   Clear
6:16 PM 48.2 °F - 35.6 °F 62% 29.69 in 10.0 mi NNE 6.9 mph - N/A   Partly Cloudy
6:36 PM 48.2 °F - 37.4 °F 66% 29.68 in 10.0 mi NNE 9.2 mph - N/A   Partly Cloudy
6:56 PM 48.2 °F - 35.6 °F 62% 29.66 in 10.0 mi NNE 6.9 mph - N/A   Partly Cloudy
7:16 PM 48.2 °F - 35.6 °F 62% 29.64 in 10.0 mi North 8.1 mph - N/A   Clear
7:36 PM 48.2 °F - 35.6 °F 62% 29.64 in 10.0 mi NNE 6.9 mph - N/A   Clear
7:56 PM 46.4 °F 43.5 °F 37.4 °F 71% 29.65 in 10.0 mi ENE 5.8 mph - N/A   Scattered Clouds
8:16 PM 46.4 °F 42.9 °F 35.6 °F 66% 29.64 in 10.0 mi NE 6.9 mph - N/A   Mostly Cloudy
8:36 PM 48.2 °F - 37.4 °F 66% 29.63 in 10.0 mi NE 6.9 mph - N/A   Overcast
8:56 PM 46.4 °F 42.9 °F 37.4 °F 71% 29.61 in 10.0 mi NNW 6.9 mph - N/A   Overcast
9:16 PM 46.4 °F 43.5 °F 37.4 °F 71% 29.59 in 10.0 mi NNE 5.8 mph - N/A   Mostly Cloudy
9:36 PM 46.4 °F 44.3 °F 37.4 °F 71% 29.59 in 10.0 mi NNE 4.6 mph - N/A   Overcast
9:56 PM 46.4 °F 42.4 °F 37.4 °F 71% 29.58 in 10.0 mi NNE 8.1 mph - N/A   Overcast
10:16 PM 46.4 °F 41.9 °F 37.4 °F 71% 29.56 in 10.0 mi North 9.2 mph - N/A   Overcast
10:36 PM 46.4 °F 42.9 °F 37.4 °F 71% 29.55 in 10.0 mi North 6.9 mph - N/A   Overcast
10:56 PM 44.6 °F 40.2 °F 37.4 °F 76% 29.54 in 10.0 mi North 8.1 mph - N/A   Overcast
11:16 PM 44.6 °F 40.2 °F 39.2 °F 81% 29.52 in 10.0 mi North 8.1 mph 21.9 mph N/A   Overcast
11:36 PM 44.6 °F 39.2 °F 39.2 °F 81% 29.51 in 10.0 mi North 10.4 mph 16.1 mph N/A   Overcast
11:56 PM 44.6 °F 38.8 °F 39.2 °F 81% 29.51 in 10.0 mi North 11.5 mph 17.3 mph N/A   Overcast